Weather in Nizhny Tsasuchey

Russia / Zabaykalsky Krai     50°30′41″N   115°07′46″E
temp.,
°C
wind,
m/s
gust,
m/s
humid.,
%
clouds,
%
prec.,
mm/h
press.,
hPa
HPBL,
m
21 april, wed
wed2100:00+10ssw33420 0.0 100429
03:00+9sse44420 0.0 100350
06:00+8sse33449 0.0 100324
09:00+14sse45270 0.0 1002323
12:00+22ssw35160 0.0 1000897
15:00+25nw57110 0.0 9982982
18:00+21n882137 0.0 10001204
21:00+14nnw81432100 0.0 1004628
22 april, thu
thu2200:00+10n81346100 0.0 1007680
03:00+8n81350100 0.0 1010680
06:00+5n81354100 0.0 1014745
09:00+6n91241100 0.0 1017853
12:00+10n91025100 0.0 10171215
15:00+12n89205 0.0 10181628
18:00+11nne78210 0.0 10191572
21:00+8n712205 0.0 1023551
23 april, fri
fri2300:00+5nne815235 0.0 1027603
03:00+3nne6123494 0.0 1030525
06:00+2nne6942100 0.3 1033589
09:00+3nne7940100 0.3 1036740
12:00+6n6729100 0.0 10361405
15:00+7n6722100 0.0 10361593
18:00+8n5716100 0.0 10351824
21:00+5ne2219100 0.0 103723
24 april, sat
sat2400:00+4ene1220100 0.0 103812
03:00+2w0022100 0.0 103810
06:00+2w1122100 0.0 103810
09:00+6wsw2217100 0.0 1038338
12:00+9w2214100 0.0 10351502
15:00+12nw2211100 0.0 10311785
18:00+13wnw2310100 0.0 10281764
21:00+8e221674 0.0 102811
25 april, sun
sun2500:00+6sse3320100 0.0 102722
03:00+6sse222482 0.0 102625
06:00+5sse3425100 0.0 102464
09:00+9sse5816100 0.0 1022399
12:00+13s5715100 0.0 10191389
15:00+14sse671799 0.0 10151347
18:00+14sse7917100 0.0 10111238
21:00+11sse51221100 0.0 1010328